Albion, NE

8:51 AM CST on February 06, 2016 (GMT -0600)
Albion Municipal

Weather History for KBVN - September, 2012

Change the Weather History Date:

Tuesday, September 11, 2012

  Actual Average (KOFK) Record (KOFK)
Temperature  
Mean Temperature 77 °F 66 °F  
Max Temperature 96 °F 78 °F 104 °F (1895)
Min Temperature 59 °F 53 °F 29 °F (1940)
Degree Days  
Heating Degree Days 0 3  
Month to date heating degree days 21  
Since 1 July heating degree days 37  
Cooling Degree Days 12 4  
Month to date cooling degree days 53  
Year to date cooling degree days 869  
Growing Degree Days 27 (Base 50)    
Moisture  
Dew Point 44 °F    
Average Humidity 33    
Maximum Humidity 56    
Minimum Humidity 16    
Precipitation  
Precipitation 0.00 in 0.09 in 3.75 in (1900)
Month to date precipitation 1.00  
Year to date precipitation 21.53  
Snow  
Snow 0.00 in 0.00 in - ()
Month to date snowfall 0.0  
Since 1 July snowfall 0.0  
Snow Depth -    
Sea Level Pressure  
Sea Level Pressure 29.83 in    
Wind  
Wind Speed 10 mph (South)    
Max Wind Speed 22 mph    
Max Gust Speed 30 mph    
Visibility 10 miles    
Events      
T = Trace of Precipitation, MM = Missing Value Source: NWS Daily Summary

Daily Weather History Graph

Daily Weather History Graph

Search for Another Location

Airport or City:

Trip Planner

Search our weather history database for the weather conditions in past years. The results will help you decide how hot, cold, wet, or windy it might be!

Date:

Astronomy

Sep. 11, 2012 Rise Set
Actual Time 7:08 AM CDT 7:47 PM CDT
Civil Twilight 6:40 AM CDT 8:15 PM CDT
Nautical Twilight 6:07 AM CDT 8:48 PM CDT
Astronomical Twilight 5:33 AM CDT 9:22 PM CDT
Moon 2:24 AM CDT (9/11) 5:01 PM CDT (9/11)
Length of Visible Light 13h 34m
Length of Day
12h 38m
Waning Crescent, 21% of the Moon is Illuminated
Sep 11
Waning Crescent
Sep 15
New
Sep 22
First Quarter
Sep 29
Full
Oct 8
Last Quarter

Hourly Weather History & Observations

Time (CDT) Temp. Dew Point Humidity Pressure Visibility Wind Dir Wind Speed Gust Speed Precip Events Conditions
12:15 AM 71.8 °F 43.7 °F 36% 29.84 in 10.0 mi South 10.4 mph - N/A   Clear
12:35 AM 70.7 °F 43.7 °F 38% 29.85 in 10.0 mi SSE 8.1 mph - N/A   Clear
12:55 AM 69.3 °F 43.9 °F 40% 29.84 in 10.0 mi SSE 8.1 mph - N/A   Clear
1:15 AM 68.0 °F 44.2 °F 42% 29.85 in 10.0 mi SSE 5.8 mph - N/A   Clear
1:35 AM 66.7 °F 44.2 °F 44% 29.85 in 10.0 mi SSE 4.6 mph - N/A   Clear
1:55 AM 64.8 °F 44.8 °F 48% 29.85 in 10.0 mi SE 5.8 mph - N/A   Clear
2:15 AM 63.7 °F 45.0 °F 51% 29.84 in 10.0 mi SE 5.8 mph - N/A   Clear
2:35 AM 62.2 °F 45.0 °F 53% 29.84 in 10.0 mi SE 5.8 mph - N/A   Clear
2:55 AM 62.1 °F 44.6 °F 53% 29.84 in 10.0 mi SE 5.8 mph - N/A   Clear
3:15 AM 63.3 °F 43.7 °F 49% 29.84 in 10.0 mi SE 4.6 mph - N/A   Clear
3:35 AM 61.9 °F 43.9 °F 52% 29.84 in 10.0 mi SSE 5.8 mph - N/A   Clear
3:55 AM 61.0 °F 44.1 °F 54% 29.83 in 10.0 mi SE 5.8 mph - N/A   Clear
4:15 AM 61.3 °F 43.2 °F 51% 29.84 in 10.0 mi SE 5.8 mph - N/A   Clear
4:35 AM 60.8 °F 43.2 °F 52% 29.83 in 10.0 mi SE 5.8 mph - N/A   Clear
4:55 AM 60.3 °F 43.7 °F 54% 29.83 in 10.0 mi SE 6.9 mph - N/A   Clear
5:15 AM 59.9 °F 43.3 °F 54% 29.83 in 10.0 mi SE 4.6 mph - N/A   Clear
5:35 AM 61.0 °F 43.2 °F 52% 29.83 in 10.0 mi SE 4.6 mph - N/A   Clear
5:55 AM 61.0 °F 43.3 °F 52% 29.84 in 10.0 mi SSE 3.5 mph - N/A   Clear
6:15 AM 61.9 °F 42.8 °F 50% 29.84 in 10.0 mi SE 3.5 mph - N/A   Clear
6:35 AM 60.8 °F 42.8 °F 52% 29.84 in 10.0 mi SSE 5.8 mph - N/A   Clear
6:55 AM 59.4 °F 43.5 °F 56% 29.84 in 10.0 mi SE 6.9 mph - N/A   Clear
7:15 AM 59.0 °F 43.3 °F 56% 29.85 in 10.0 mi SE 3.5 mph - N/A   Clear
7:35 AM 59.9 °F 43.2 °F 54% 29.86 in 10.0 mi SSE 4.6 mph - N/A   Clear
7:55 AM 60.6 °F 43.9 °F 54% 29.85 in 10.0 mi SSE 9.2 mph - N/A   Clear
8:15 AM 64.2 °F 43.0 °F 46% 29.84 in 10.0 mi SSE 8.1 mph - N/A   Clear
8:35 AM 67.1 °F 42.8 °F 41% 29.84 in 10.0 mi South 4.6 mph - N/A   Clear
8:55 AM 71.6 °F 41.2 °F 33% 29.84 in 10.0 mi South 11.5 mph 19.6 mph N/A   Clear
9:15 AM 73.8 °F 40.8 °F 30% 29.84 in 10.0 mi SSW 17.3 mph 24.2 mph N/A   Clear
9:35 AM 75.2 °F 40.3 °F 28% 29.85 in 10.0 mi SSW 18.4 mph 21.9 mph N/A   Clear
9:55 AM 76.1 °F 40.6 °F 28% 29.85 in 10.0 mi SW 15.0 mph 19.6 mph N/A   Clear
10:15 AM 76.6 °F 40.8 °F 28% 29.86 in 10.0 mi SSW 16.1 mph 21.9 mph N/A   Clear
10:35 AM 77.7 °F 40.8 °F 27% 29.86 in 10.0 mi SW 11.5 mph 18.4 mph N/A   Clear
10:55 AM 81.1 °F 41.0 °F 24% 29.86 in 10.0 mi SSW 11.5 mph 23.0 mph N/A   Clear
11:15 AM 80.6 °F 41.2 °F 25% 29.85 in 10.0 mi SSW 15.0 mph - N/A   Clear
11:35 AM 82.4 °F 41.7 °F 24% 29.85 in 10.0 mi SSW 16.1 mph 21.9 mph N/A   Clear
11:55 AM 84.4 °F 42.6 °F 23% 29.84 in 10.0 mi SSW 13.8 mph 21.9 mph N/A   Clear
12:15 PM 85.5 °F 42.1 °F 22% 29.84 in 10.0 mi SSW 16.1 mph 25.3 mph N/A   Clear
12:35 PM 87.8 °F 42.8 °F 21% 29.84 in 10.0 mi SSW 13.8 mph 19.6 mph N/A   Clear
12:55 PM 87.8 °F 43.3 °F 21% 29.84 in 10.0 mi South 12.7 mph 19.6 mph N/A   Clear
1:15 PM 89.6 °F 42.8 °F 20% 29.83 in 10.0 mi SSW 15.0 mph 24.2 mph N/A   Clear
1:35 PM 89.4 °F 43.9 °F 20% 29.82 in 10.0 mi South 15.0 mph 20.7 mph N/A   Clear
1:55 PM 88.7 °F 44.1 °F 21% 29.82 in 10.0 mi South 12.7 mph - N/A   Clear
2:15 PM 92.1 °F 43.7 °F 19% 29.82 in 10.0 mi South 17.3 mph 20.7 mph N/A   Clear
2:35 PM 94.3 °F 43.5 °F 17% 29.81 in 10.0 mi SSW 19.6 mph 23.0 mph N/A   Clear
2:55 PM 95.0 °F 43.3 °F 17% 29.81 in 10.0 mi South 17.3 mph 24.2 mph N/A   Clear
3:15 PM 95.7 °F 42.1 °F 16% 29.80 in 10.0 mi South 20.7 mph 26.5 mph N/A   Clear
3:35 PM 95.9 °F 42.6 °F 16% 29.79 in 10.0 mi SSW 18.4 mph 25.3 mph N/A   Clear
3:55 PM 95.7 °F 42.8 °F 16% 29.79 in 10.0 mi South 21.9 mph 26.5 mph N/A   Clear
4:15 PM 95.5 °F 43.3 °F 17% 29.79 in 10.0 mi South 19.6 mph 28.8 mph N/A   Clear
4:35 PM 94.8 °F 43.0 °F 17% 29.79 in 10.0 mi South 21.9 mph 29.9 mph N/A   Clear
4:55 PM 93.7 °F 43.0 °F 17% 29.79 in 10.0 mi South 19.6 mph 28.8 mph N/A   Clear
5:15 PM 93.9 °F 43.7 °F 18% 29.79 in 10.0 mi South 18.4 mph 26.5 mph N/A   Clear
5:35 PM 93.7 °F 43.2 °F 17% 29.78 in 10.0 mi South 16.1 mph 26.5 mph N/A   Clear
5:55 PM 93.2 °F 43.2 °F 18% 29.79 in 10.0 mi South 17.3 mph 25.3 mph N/A   Clear
6:15 PM 90.9 °F 44.1 °F 20% 29.79 in 10.0 mi South 12.7 mph - N/A   Clear
6:35 PM 90.7 °F 45.0 °F 20% 29.79 in 10.0 mi South 16.1 mph 20.7 mph N/A   Clear
6:55 PM 88.7 °F 44.8 °F 22% 29.79 in 10.0 mi SSE 15.0 mph - N/A   Clear
7:15 PM 87.4 °F 45.3 °F 23% 29.79 in 10.0 mi SSE 11.5 mph - N/A   Clear
7:35 PM 86.5 °F 45.1 °F 24% 29.80 in 10.0 mi South 8.1 mph - N/A   Clear
7:55 PM 83.8 °F 46.0 °F 27% 29.80 in 10.0 mi SSE 9.2 mph - N/A   Clear
8:15 PM 82.6 °F 45.5 °F 27% 29.81 in 10.0 mi SSE 9.2 mph - N/A   Clear
8:35 PM 81.5 °F 45.3 °F 28% 29.81 in 10.0 mi SSE 6.9 mph - N/A   Clear
8:55 PM 81.0 °F 45.1 °F 28% 29.82 in 10.0 mi SSE 8.1 mph - N/A   Clear
9:15 PM 80.4 °F 45.1 °F 29% 29.83 in 10.0 mi SSE 8.1 mph - N/A   Clear
9:35 PM 79.0 °F 45.9 °F 31% 29.83 in 10.0 mi SSE 8.1 mph - N/A   Clear
9:55 PM 78.8 °F 46.0 °F 31% 29.84 in 10.0 mi SSE 8.1 mph - N/A   Clear
10:15 PM 78.8 °F 46.4 °F 32% 29.85 in 10.0 mi SSE 8.1 mph - N/A   Clear
10:35 PM 78.3 °F 46.0 °F 32% 29.86 in 10.0 mi SSE 9.2 mph - N/A   Clear
10:55 PM 77.9 °F 45.9 °F 32% 29.86 in 10.0 mi SSE 9.2 mph - N/A   Clear
11:35 PM 77.2 °F 45.7 °F 33% 29.86 in 10.0 mi SSE 9.2 mph - N/A   Clear
11:55 PM 76.3 °F 45.7 °F 34% 29.86 in 10.0 mi SSE 8.1 mph - N/A   Clear